KA1CNF Weather Reports


time (UTC)temp
F
wind
direction
speed
knots
gust
knots
rain 1hr
in
rain 24hr
in
rain mn
in
humidity
%
barometer
mb
20260507060015 41 0.0 2.6 0.00 0.48 0.00 95 1011.1
20260507053019 42 0.0 2.6 0.00 0.50 0.00 95 1011.5
20260507050017 42 315 0.9 5.2 0.00 0.55 0.00 95 1011.5
20260507043017 42 315 0.9 4.3 0.00 0.57 0.00 95 1011.4
20260507040037 43 315 0.9 5.2 0.00 0.59 0.00 96 1011.2
20260507033016 43 315 0.9 3.5 0.00 0.61 0.61 96 1011.0
20260507030036 43 315 0.9 5.2 0.00 0.62 0.61 95 1010.7
20260507023016 43 315 0.9 3.5 0.00 0.62 0.61 95 1010.8
20260507020017 43 337 0.9 3.5 0.01 0.64 0.61 94 1011.0
20260507013016 44 337 1.7 5.2 0.03 0.66 0.61 94 1011.1
20260507010016 45 337 0.9 4.3 0.04 0.65 0.60 93 1010.6
20260507003016 46 315 0.9 7.8 0.04 0.64 0.58 91 1010.2
20260507000016 48 0.0 0.0 0.03 0.63 0.56 91 1009.5
20260506233016 48 0.0 0.0 0.01 0.62 0.54 89 1009.2
20260506230016 48 0.0 0.0 0.00 0.63 0.53 88 1009.0
20260506223017 48 0.0 0.0 0.00 0.64 0.53 87 1008.7
20260506220015 48 0.0 0.0 0.00 0.64 0.53 86 1008.5
20260506213016 49 0.0 0.0 0.00 0.64 0.53 84 1008.7
20260506210015 48 0.0 1.7 0.00 0.64 0.53 86 1008.6
20260506203016 48 22 0.9 2.6 0.00 0.64 0.53 86 1008.4
20260506200015 48 22 0.9 4.3 0.00 0.64 0.53 87 1008.7
20260506193015 47 22 0.9 4.3 0.00 0.64 0.53 89 1008.4
20260506190037 46 22 2.6 7.0 0.00 0.64 0.53 91 1008.6
20260506183015 46 22 1.7 6.1 0.00 0.64 0.53 93 1008.6
20260506180015 46 22 1.7 6.1 0.00 0.64 0.53 93 1008.7
20260506173037 46 22 1.7 5.2 0.00 0.64 0.53 94 1008.1
20260506170017 45 22 2.6 7.8 0.00 0.64 0.53 95 1007.8
20260506163017 45 45 4.3 7.8 0.00 0.64 0.53 95 1007.5
20260506160017 45 22 2.6 7.8 0.00 0.64 0.53 96 1007.7
20260506153018 44 22 3.5 7.8 0.00 0.64 0.53 96 1007.5
20260506150017 44 45 4.3 7.8 0.00 0.64 0.53 96 1007.5
20260506143016 44 45 4.3 7.8 0.01 0.64 0.53 97 1007.2
20260506140016 44 45 4.3 7.8 0.02 0.64 0.53 97 1007.2
20260506133036 44 45 3.5 8.7 0.01 0.63 0.52 97 1007.0
20260506130016 43 45 3.5 7.8 0.01 0.62 0.51 97 1006.8
20260506123016 44 45 3.5 6.1 0.03 0.62 0.51 97 1007.0
20260506120018 43 45 4.3 10.4 0.03 0.61 0.50 97 1007.1
20260506113016 44 45 4.3 9.6 0.03 0.59 0.48 97 1006.6
20260506110036 44 45 5.2 9.6 0.05 0.57 0.47 97 1006.5
20260506103016 44 45 3.5 7.8 0.05 0.55 0.45 98 1007.0
20260506100016 44 45 2.6 5.2 0.03 0.52 0.42 98 1007.0
20260506093036 44 45 3.5 7.0 0.04 0.50 0.40 97 1006.8
20260506090016 44 45 3.5 6.1 0.07 0.49 0.39 97 1006.6
20260506083017 45 45 4.3 8.7 0.09 0.46 0.36 97 1006.8
20260506073015 46 45 5.2 9.6 0.08 0.37 0.27 97 1007.1